Starlink 11109

operational
NORAD ID: 60306 Int'l Des: 2024-133 Owner: SPXS Country: US Constellation: starlink
LEOCIRCULAR

Über Starlink 11109

Beschreibung wird geladen...

Live-Position

3D-Globus wird geladen...

Nächste Überflüge

Höhenverlauf

Altitude vs Time

uPlot chart will show altitude changes over time

Zweizeiliger Elementsatz

1 60306U 24133F 25352.56630703 .00011009 00000-0 95796-4 0 9996
2 60306 53.1583 186.0672 0001320 106.6158 253.5005 15.69662365 80990
Epoch: 18. Dez. 2025 • Age: 9 hours

Aktueller Status

Höhe 361.9 km
Geschwindigkeit 7.70 km/s
Subsatellitenpunkt 34.16°N, 142.49°E
Startdatum 28. Juli 2024
Alter 1.3 years
Typ internet

Technische Details

Klassifizierung Payload
Masse 960.00 kg
Trockenmasse 910.00 kg
Gesamtmasse 960.00 kg
Länge 0.30 m
Durchmesser 4.10 m
Spannweite 29.00 m
Form Box + pan
Hersteller SPXS
Bus-Typ Starlink V2MD
Phasenstatus In Orbit
Besitzer/Staat SPXS/US

Große Konstellationen

Loading constellations...